CW8721 Weather Reports


Display with metric or nautical units.
time (UTC)temp
F
wind
direction
speed
MPH
gust
MPH
rain 1hr
in
rain 24hr
in
rain mn
in
humidity
%
barometer
mb
20260507234602 75 319 4.0 12.0 0.00 0.00 0.00 23 1007.5
20260507234058 75 300 1.0 8.0 0.00 0.00 0.00 23 1007.7
20260507233559 75 287 3.0 12.0 0.00 0.00 0.00 23 1007.7
20260507233115 75 328 5.0 12.0 0.00 0.00 0.00 23 1007.7
20260507232556 76 331 6.0 11.0 0.00 0.00 0.00 22 1007.7
20260507232057 76 322 3.0 13.0 0.00 0.00 0.00 21 1007.8
20260507231554 76 322 4.0 11.0 0.00 0.00 0.00 22 1007.9
20260507231053 77 313 7.0 11.0 0.00 0.00 0.00 22 1008.0
20260507230552 76 307 5.0 11.0 0.00 0.00 0.00 23 1008.1
20260507230052 76 326 5.0 10.0 0.00 0.00 0.00 22 1008.2
20260507225551 75 355 5.0 13.0 0.00 0.00 0.00 22 1008.5
20260507225050 75 346 2.0 13.0 0.00 0.00 0.00 23 1008.5
20260507224550 75 332 6.0 11.0 0.00 0.00 0.00 22 1008.5
20260507224048 75 342 5.0 11.0 0.00 0.00 0.00 23 1008.7
20260507223551 75 49 6.0 12.0 0.00 0.00 0.00 22 1008.7
20260507223057 75 309 8.0 12.0 0.00 0.00 0.00 22 1008.9
20260507222546 75 10 5.0 12.0 0.00 0.00 0.00 22 1008.9
20260507222046 75 300 5.0 14.0 0.00 0.00 0.00 23 1009.0
20260507221546 75 334 9.0 14.0 0.00 0.00 0.00 23 1009.0
20260507221047 75 311 9.0 16.0 0.00 0.00 0.00 23 1009.1
20260507220544 75 329 9.0 16.0 0.00 0.00 0.00 23 1009.2
20260507220044 75 16 6.0 13.0 0.00 0.00 0.00 23 1009.3
20260507215544 75 291 5.0 13.0 0.00 0.00 0.00 23 1009.3
20260507215042 75 335 4.0 14.0 0.00 0.00 0.00 23 1009.4
20260507214544 75 336 9.0 14.0 0.00 0.00 0.00 22 1009.5
20260507214045 75 342 5.0 15.0 0.00 0.00 0.00 23 1009.5
20260507213544 74 331 8.0 15.0 0.00 0.00 0.00 23 1009.7
20260507213043 75 9 8.0 13.0 0.00 0.00 0.00 22 1009.7
20260507212544 75 336 7.0 15.0 0.00 0.00 0.00 22 1009.9
20260507212041 75 322 9.0 16.0 0.00 0.00 0.00 22 1009.9
20260507211548 75 315 9.0 16.0 0.00 0.00 0.00 22 1010.0
20260507211038 75 321 7.0 16.0 0.00 0.00 0.00 22 1010.1
20260507210541 75 341 11.0 16.0 0.00 0.00 0.00 21 1010.1
20260507210057 76 327 10.0 15.0 0.00 0.00 0.00 21 1010.3
20260507205539 76 315 2.0 11.0 0.00 0.00 0.00 23 1010.3
20260507205035 76 250 5.0 10.0 0.00 0.00 0.00 23 1010.4
20260507204542 74 246 2.0 9.0 0.00 0.00 0.00 23 1010.5
20260507204033 75 246 1.0 5.0 0.00 0.00 0.00 21 1010.4
20260507203532 74 259 1.0 6.0 0.00 0.00 0.00 21 1010.7
20260507203032 74 280 0.0 7.0 0.00 0.00 0.00 23 1010.7
20260507202531 73 264 3.0 7.0 0.00 0.00 0.00 24 1010.9
20260507202031 73 163 1.0 5.0 0.00 0.00 0.00 22 1010.9
20260507201530 73 203 0.0 6.0 0.00 0.00 0.00 25 1010.9
20260507201030 73 244 3.0 6.0 0.00 0.00 0.00 23 1010.9
20260507200529 73 120 0.0 4.0 0.00 0.00 0.00 23 1011.0
20260507200031 73 117 2.0 4.0 0.00 0.00 0.00 24 1011.0
20260507195529 73 167 0.0 2.0 0.00 0.00 0.00 23 1011.1
20260507195027 73 165 0.0 6.0 0.00 0.00 0.00 22 1011.2
20260507194534 73 253 1.0 6.0 0.00 0.00 0.00 23 1011.2
20260507194024 72 164 0.0 2.0 0.00 0.00 0.00 23 1011.3
20260507193524 72 163 0.0 2.0 0.00 0.00 0.00 23 1011.3
20260507193024 72 159 0.0 6.0 0.00 0.00 0.00 23 1011.4
20260507192522 72 161 0.0 9.0 0.00 0.00 0.00 24 1011.5
20260507192021 71 88 1.0 6.0 0.00 0.00 0.00 25 1011.5
20260507191521 70 153 1.0 5.0 0.00 0.00 0.00 23 1011.6
20260507191022 70 187 1.0 3.0 0.00 0.00 0.00 22 1011.7
20260507190520 70 213 0.0 5.0 0.00 0.00 0.00 24 1011.8
20260507190027 70 156 1.0 6.0 0.00 0.00 0.00 23 1011.8
20260507185520 70 178 3.0 6.0 0.00 0.00 0.00 23 1011.9
20260507185017 69 157 3.0 9.0 0.00 0.00 0.00 23 1011.9
20260507184521 69 142 2.0 9.0 0.00 0.00 0.00 25 1011.9
20260507184017 68 138 3.0 8.0 0.00 0.00 0.00 24 1011.9
20260507183515 69 188 3.0 8.0 0.00 0.00 0.00 24 1012.0
20260507183018 69 167 3.0 7.0 0.00 0.00 0.00 24 1012.1
20260507182517 68 151 4.0 7.0 0.00 0.00 0.00 23 1012.1
20260507182013 69 161 3.0 7.0 0.00 0.00 0.00 23 1012.2
20260507181513 67 145 2.0 7.0 0.00 0.00 0.00 25 1012.1
20260507181012 66 168 4.0 9.0 0.00 0.00 0.00 24 1012.2
20260507180512 66 202 4.0 9.0 0.00 0.00 0.00 24 1012.2
20260507180017 66 152 3.0 9.0 0.00 0.00 0.00 24 1012.3
20260507175510 66 136 4.0 11.0 0.00 0.00 0.00 23 1012.3
20260507175009 66 170 4.0 14.0 0.00 0.00 0.00 23 1012.3
20260507174512 66 139 4.0 9.0 0.00 0.00 0.00 23 1012.4
20260507174010 66 128 4.0 14.0 0.00 0.00 0.00 23 1012.4
20260507173510 65 192 4.0 14.0 0.00 0.00 0.00 23 1012.5
20260507173017 65 176 5.0 9.0 0.00 0.00 0.00 23 1012.6
20260507172506 65 159 6.0 9.0 0.00 0.00 0.00 23 1012.6
20260507172004 64 167 4.0 9.0 0.00 0.00 0.00 23 1012.7
20260507171503 64 173 6.0 9.0 0.00 0.00 0.00 23 1012.7
20260507171002 64 175 4.0 8.0 0.00 0.00 0.00 23 1012.8
20260507170501 63 155 5.0 10.0 0.00 0.00 0.00 24 1012.8
20260507170101 63 177 4.0 11.0 0.00 0.00 0.00 24 1012.8
20260507165601 63 233 2.0 11.0 0.00 0.00 0.00 25 1012.9
20260507165100 63 162 3.0 11.0 0.00 0.00 0.00 24 1012.9
20260507164631 63 167 4.0 14.0 0.00 0.00 0.00 24 1012.9
20260507164100 63 162 5.0 14.0 0.00 0.00 0.00 24 1013.0
20260507163559 63 179 5.0 14.0 0.00 0.00 0.00 24 1013.1
20260507163100 63 161 4.0 14.0 0.00 0.00 0.00 24 1013.0
20260507162558 63 190 5.0 12.0 0.00 0.00 0.00 24 1013.1
20260507162056 62 173 5.0 10.0 0.00 0.00 0.00 25 1013.1
20260507161600 61 172 5.0 10.0 0.00 0.00 0.00 25 1013.1
20260507161059 61 183 5.0 11.0 0.00 0.00 0.00 25 1013.1
20260507160555 61 170 6.0 10.0 0.00 0.00 0.00 25 1013.1
20260507160053 61 179 3.0 9.0 0.00 0.00 0.00 27 1013.1
20260507155553 61 166 4.0 9.0 0.00 0.00 0.00 26 1013.0
20260507155052 61 178 3.0 11.0 0.00 0.00 0.00 26 1013.0
20260507154557 61 178 6.0 11.0 0.00 0.00 0.00 26 1012.9
20260507154051 61 176 4.0 8.0 0.00 0.00 0.00 26 1012.9
20260507153550 61 194 5.0 9.0 0.00 0.00 0.00 27 1012.9
20260507153049 60 168 6.0 16.0 0.00 0.00 0.00 27 1013.0
20260507152548 60 175 7.0 16.0 0.00 0.00 0.00 27 1013.0
20260507152048 60 169 6.0 13.0 0.00 0.00 0.00 28 1013.1
20260507151548 59 166 5.0 9.0 0.00 0.00 0.00 28 1013.0
20260507151049 59 178 4.0 15.0 0.00 0.00 0.00 29 1013.1
20260507150545 59 162 6.0 15.0 0.00 0.00 0.00 29 1013.1
20260507150047 58 180 6.0 9.0 0.00 0.00 0.00 30 1013.1
20260507145543 58 158 5.0 14.0 0.00 0.00 0.00 31 1013.2
20260507145041 57 175 7.0 14.0 0.00 0.00 0.00 32 1013.2
20260507144540 57 170 5.0 12.0 0.00 0.00 0.00 33 1013.2
20260507144038 57 185 5.0 12.0 0.00 0.00 0.00 33 1013.2
20260507143539 57 178 6.0 12.0 0.00 0.00 0.00 33 1013.2
20260507143041 57 148 4.0 10.0 0.00 0.00 0.00 33 1013.0
20260507142538 57 162 4.0 11.0 0.00 0.00 0.00 32 1013.1
20260507142037 57 176 6.0 11.0 0.00 0.00 0.00 32 1012.9
20260507141537 57 184 6.0 10.0 0.00 0.00 0.00 34 1013.0
20260507141038 57 171 4.0 9.0 0.00 0.00 0.00 36 1013.1
20260507140534 56 182 6.0 9.0 0.00 0.00 0.00 36 1013.0
20260507140039 56 180 6.0 10.0 0.00 0.00 0.00 36 1013.2
20260507135535 56 165 5.0 11.0 0.00 0.00 0.00 36 1012.9
20260507135031 56 166 4.0 11.0 0.00 0.00 0.00 37 1013.0
20260507134531 56 182 4.0 10.0 0.00 0.00 0.00 35 1013.1
20260507134029 56 165 4.0 10.0 0.00 0.00 0.00 35 1013.0
20260507133531 56 167 4.0 9.0 0.00 0.00 0.00 34 1013.0
20260507133030 56 183 5.0 10.0 0.00 0.00 0.00 34 1013.1
20260507132528 56 179 3.0 10.0 0.00 0.00 0.00 32 1013.0
20260507132027 56 178 4.0 10.0 0.00 0.00 0.00 31 1013.1
20260507131527 56 360 3.0 10.0 0.00 0.00 0.00 31 1013.2
20260507131027 55 170 4.0 15.0 0.00 0.00 0.00 31 1013.1
20260507130526 55 173 4.0 15.0 0.00 0.00 0.00 31 1013.1
20260507130028 55 164 4.0 9.0 0.00 0.00 0.00 31 1013.1
20260507125527 55 174 4.0 9.0 0.00 0.00 0.00 31 1013.1
20260507125024 55 156 3.0 7.0 0.00 0.00 0.00 32 1013.3
20260507124533 55 152 4.0 6.0 0.00 0.00 0.00 32 1013.2
20260507124027 55 178 3.0 7.0 0.00 0.00 0.00 33 1013.2
20260507123522 55 165 3.0 8.0 0.00 0.00 0.00 33 1013.2
20260507123023 55 164 3.0 8.0 0.00 0.00 0.00 33 1013.2
20260507122522 54 153 3.0 9.0 0.00 0.00 0.00 34 1013.2
20260507122021 54 171 5.0 9.0 0.00 0.00 0.00 34 1013.1
20260507121520 54 169 4.0 6.0 0.00 0.00 0.00 34 1013.3
20260507121020 54 177 3.0 10.0 0.00 0.00 0.00 35 1013.3
20260507120523 54 163 4.0 10.0 0.00 0.00 0.00 34 1013.2
20260507120020 54 184 4.0 12.0 0.00 0.00 0.00 33 1013.2
20260507115521 55 168 4.0 12.0 0.00 0.00 0.00 33 1013.2
20260507115022 55 164 4.0 6.0 0.00 0.00 0.00 33 1013.2
20260507114518 55 175 3.0 8.0 0.00 0.00 0.00 33 1013.2
20260507114021 55 165 4.0 9.0 0.00 0.00 0.00 33 1013.1
20260507113518 55 148 3.0 9.0 0.00 0.00 0.00 33 1013.2
20260507113036 55 179 3.0 10.0 0.00 0.00 0.00 32 1013.3
20260507112517 56 161 4.0 7.0 0.00 0.00 0.00 31 1013.3
20260507112018 56 166 4.0 6.0 0.00 0.00 0.00 31 1013.4
20260507111516 56 170 3.0 6.0 0.00 0.00 0.00 31 1013.6
20260507111014 55 173 4.0 6.0 0.00 0.00 0.00 32 1013.5
20260507110514 55 175 3.0 6.0 0.00 0.00 0.00 32 1013.6
20260507110016 55 163 3.0 6.0 0.00 0.00 0.00 33 1013.6
20260507105514 55 157 3.0 6.0 0.00 0.00 0.00 33 1013.6
20260507105014 55 174 4.0 6.0 0.00 0.00 0.00 33 1013.6
20260507104514 55 168 4.0 10.0 0.00 0.00 0.00 33 1013.5
20260507104015 55 160 4.0 10.0 0.00 0.00 0.00 33 1013.6
20260507103516 55 171 4.0 11.0 0.00 0.00 0.00 32 1013.6
20260507103018 55 174 4.0 8.0 0.00 0.00 0.00 33 1013.7
20260507102513 55 172 4.0 6.0 0.00 0.00 0.00 33 1013.8
20260507102012 55 178 3.0 9.0 0.00 0.00 0.00 33 1013.7
20260507101516 55 169 4.0 8.0 0.00 0.00 0.00 33 1013.9
20260507101010 55 143 3.0 8.0 0.00 0.00 0.00 33 1013.9
20260507100511 56 181 4.0 7.0 0.00 0.00 0.00 33 1013.9
20260507100012 56 175 3.0 7.0 0.00 0.00 0.00 33 1013.9
20260507095510 56 168 4.0 7.0 0.00 0.00 0.00 33 1014.0
20260507095010 55 150 4.0 8.0 0.00 0.00 0.00 34 1014.0
20260507094509 55 165 5.0 8.0 0.00 0.00 0.00 34 1014.1
20260507094008 55 183 4.0 11.0 0.00 0.00 0.00 35 1014.2
20260507093508 55 189 5.0 12.0 0.00 0.00 0.00 35 1014.3
20260507093007 55 160 4.0 6.0 0.00 0.00 0.00 35 1014.5
20260507092510 55 169 4.0 6.0 0.00 0.00 0.00 35 1014.5
20260507092008 55 223 4.0 11.0 0.00 0.00 0.00 35 1014.6
20260507091506 56 161 2.0 14.0 0.00 0.00 0.00 35 1014.6
20260507091005 56 168 4.0 5.0 0.00 0.00 0.00 33 1014.7
20260507090511 56 163 3.0 7.0 0.00 0.00 0.00 33 1014.7
20260507085503 56 171 4.0 8.0 0.00 0.11 0.00 32 1014.8
20260507085003 56 163 3.0 8.0 0.00 0.11 0.00 32 1015.0
20260507084505 56 149 4.0 8.0 0.00 0.11 0.00 32 1014.9
20260507084002 56 202 2.0 9.0 0.00 0.11 0.00 32 1015.0
20260507083501 56 155 3.0 9.0 0.00 0.11 0.00 33 1015.1
20260507083100 56 143 3.0 9.0 0.00 0.11 0.00 33 1015.2
20260507082600 56 163 3.0 7.0 0.00 0.11 0.00 33 1015.2
20260507082059 56 163 3.0 7.0 0.00 0.11 0.00 33 1015.2
20260507081602 56 149 2.0 6.0 0.00 0.11 0.00 34 1015.4
20260507081058 55 164 2.0 6.0 0.00 0.11 0.00 34 1015.4
20260507080559 55 164 2.0 5.0 0.00 0.11 0.00 36 1015.4
20260507080059 55 161 2.0 6.0 0.00 0.11 0.00 37 1015.4
20260507075557 55 154 2.0 8.0 0.00 0.11 0.00 38 1015.5
20260507075056 55 165 4.0 8.0 0.00 0.11 0.00 38 1015.4
20260507074559 55 147 3.0 5.0 0.00 0.11 0.00 37 1015.4
20260507074059 55 163 3.0 6.0 0.00 0.11 0.00 36 1015.5
20260507073557 55 144 3.0 7.0 0.00 0.11 0.00 34 1015.6
20260507073058 55 162 2.0 7.0 0.00 0.11 0.00 34 1015.6
20260507072555 56 171 2.0 6.0 0.00 0.11 0.00 34 1015.6
20260507072053 56 181 3.0 6.0 0.00 0.11 0.00 34 1015.7
20260507071553 56 182 3.0 6.0 0.00 0.11 0.00 33 1015.7
20260507071052 56 191 3.0 6.0 0.00 0.11 0.00 32 1015.7
20260507070551 55 174 1.0 4.0 0.00 0.11 0.00 33 1015.8
20260507070051 55 149 0.0 3.0 0.00 0.11 0.00 34 1015.9
20260507065550 55 168 1.0 7.0 0.00 0.11 0.00 33 1015.8
20260507065049 55 162 1.0 7.0 0.00 0.11 0.00 34 1015.9
20260507064551 55 153 1.0 5.0 0.00 0.11 0.00 34 1015.9
20260507064048 54 171 2.0 5.0 0.00 0.11 0.00 36 1015.9
20260507063546 54 184 1.0 4.0 0.00 0.11 0.00 38 1016.0
20260507063045 53 203 1.0 3.0 0.00 0.11 0.00 40 1016.0
20260507062543 52 171 1.0 3.0 0.00 0.11 0.00 42 1016.0
20260507062041 52 162 0.0 4.0 0.00 0.11 0.00 42 1015.9
20260507061542 51 140 1.0 4.0 0.00 0.11 0.00 42 1015.9
20260507061043 51 147 1.0 4.0 0.00 0.11 0.00 42 1016.1
20260507060538 51 123 1.0 4.0 0.00 0.11 0.00 41 1016.0
20260507060042 51 104 2.0 4.0 0.00 0.11 0.00 41 1016.0
20260507055537 51 130 1.0 4.0 0.00 0.11 0.11 41 1016.0
20260507055036 51 153 0.0 2.0 0.00 0.11 0.11 41 1016.0
20260507054538 52 157 0.0 2.0 0.00 0.11 0.11 41 1015.9
20260507054038 52 158 0.0 4.0 0.00 0.11 0.11 40 1015.8
20260507053536 52 159 1.0 4.0 0.00 0.11 0.11 40 1015.9
20260507053037 52 147 1.0 6.0 0.00 0.11 0.11 41 1015.7
20260507052539 51 82 2.0 4.0 0.00 0.11 0.11 42 1015.7
20260507052035 51 142 1.0 4.0 0.00 0.11 0.11 43 1015.9
20260507051535 51 105 0.0 4.0 0.00 0.11 0.11 42 1015.7
20260507051035 51 107 1.0 4.0 0.00 0.11 0.11 42 1015.7
20260507050535 51 91 1.0 3.0 0.00 0.11 0.11 41 1015.8
20260507050035 52 89 1.0 2.0 0.00 0.11 0.11 39 1015.7
20260507045538 52 88 0.0 2.0 0.00 0.11 0.11 40 1015.7
20260507045035 52 78 0.0 2.0 0.00 0.11 0.11 38 1015.8
20260507044535 53 78 0.0 2.0 0.00 0.11 0.11 39 1016.1
20260507044035 53 78 1.0 3.0 0.00 0.11 0.11 37 1016.1
20260507043534 53 78 1.0 3.0 0.00 0.11 0.11 38 1016.0
20260507043045 53 78 0.0 1.0 0.00 0.11 0.11 37 1015.9
20260507042535 54 78 0.0 3.0 0.00 0.11 0.11 37 1016.0
20260507042037 55 78 1.0 3.0 0.00 0.11 0.11 35 1016.0
20260507041534 57 79 0.0 2.0 0.00 0.11 0.11 31 1015.9
20260507041033 57 79 0.0 2.0 0.00 0.11 0.11 30 1015.8
20260507040533 57 78 0.0 2.0 0.00 0.11 0.11 31 1015.7
20260507040033 57 78 0.0 1.0 0.00 0.11 0.11 32 1015.8
20260507035532 56 78 0.0 2.0 0.00 0.11 0.11 35 1015.8
20260507035032 57 78 0.0 2.0 0.00 0.11 0.11 33 1015.8
20260507034535 56 78 0.0 1.0 0.00 0.11 0.11 35 1015.8
20260507034034 56 78 0.0 0.0 0.00 0.11 0.11 36 1015.9
20260507033532 57 76 0.0 1.0 0.00 0.11 0.11 35 1015.7
20260507033034 56 76 0.0 1.0 0.00 0.11 0.11 33 1015.7
20260507032533 56 76 0.0 1.0 0.00 0.11 0.11 36 1015.6
20260507032031 57 76 0.0 1.0 0.00 0.11 0.11 34 1015.5
20260507031531 58 76 0.0 1.0 0.00 0.11 0.11 33 1015.5
20260507031031 58 76 0.0 0.0 0.00 0.11 0.11 30 1015.3
20260507030533 58 76 0.0 0.0 0.00 0.11 0.11 30 1015.3
20260507030031 57 74 0.0 0.0 0.00 0.11 0.11 32 1015.2
20260507025530 56 74 0.0 0.0 0.00 0.11 0.11 33 1015.2
20260507025032 56 74 0.0 0.0 0.00 0.11 0.11 31 1015.4
20260507024530 57 74 0.0 0.0 0.00 0.11 0.11 31 1015.2
20260507024030 57 74 0.0 0.0 0.00 0.11 0.11 30 1015.3
20260507023532 57 73 0.0 0.0 0.00 0.11 0.11 29 1015.3
20260507023029 58 73 0.0 2.0 0.00 0.11 0.11 28 1015.3
20260507022529 58 73 1.0 2.0 0.00 0.11 0.11 27 1015.3
20260507022033 58 72 1.0 2.0 0.00 0.11 0.11 26 1015.3
20260507021529 59 71 0.0 0.0 0.00 0.11 0.11 26 1015.2
20260507021030 59 71 0.0 2.0 0.00 0.11 0.11 27 1015.3
20260507020528 60 71 0.0 3.0 0.00 0.11 0.11 26 1015.3
20260507020044 60 71 1.0 4.0 0.00 0.11 0.11 26 1015.3
20260507015527 60 49 2.0 4.0 0.00 0.11 0.11 25 1015.3
20260507015029 61 55 1.0 4.0 0.00 0.11 0.11 25 1015.3
20260507014528 61 55 1.0 5.0 0.00 0.11 0.11 25 1015.4
20260507014028 61 58 3.0 5.0 0.00 0.11 0.11 24 1015.4
20260507013527 61 38 1.0 4.0 0.00 0.11 0.11 24 1015.4
20260507013027 61 5 2.0 5.0 0.00 0.11 0.11 23 1015.4
20260507012529 62 26 2.0 6.0 0.00 0.11 0.11 23 1015.4
20260507012026 62 350 2.0 8.0 0.00 0.11 0.11 22 1015.4
20260507011539 62 321 4.0 6.0 0.00 0.11 0.11 23 1015.5
20260507011026 62 298 2.0 6.0 0.00 0.11 0.11 22 1015.4
20260507010526 62 305 2.0 8.0 0.00 0.11 0.11 22 1015.5
20260507010029 62 302 3.0 8.0 0.00 0.11 0.11 24 1015.6
20260507005526 62 319 1.0 8.0 0.00 0.11 0.11 22 1015.6
20260507005025 63 5 3.0 10.0 0.00 0.11 0.11 22 1015.7
20260507004525 63 326 5.0 10.0 0.00 0.11 0.11 22 1015.7
20260507004026 62 273 2.0 9.0 0.00 0.11 0.11 24 1015.6
20260507003526 63 300 2.0 9.0 0.00 0.11 0.11 22 1015.7
20260507003025 63 321 3.0 11.0 0.00 0.11 0.11 24 1015.7
20260507002525 63 288 5.0 12.0 0.00 0.11 0.11 23 1015.7
20260507002024 63 289 6.0 11.0 0.00 0.11 0.11 23 1015.6
20260507001553 63 286 5.0 11.0 0.00 0.11 0.11 22 1015.6
20260507001028 63 325 8.0 11.0 0.00 0.11 0.11 23 1015.7
20260507000524 64 295 7.0 11.0 0.00 0.11 0.11 23 1015.6
20260507000025 64 301 2.0 12.0 0.00 0.11 0.11 23 1015.6
20260506235526 64 296 3.0 12.0 0.00 0.11 0.11 24 1015.6
20260506235023 64 304 5.0 10.0 0.00 0.11 0.11 23 1015.6